Flag for Czech Republic Weather past 2 weeks in Brno, Czech Republic

Now
46 °F

Passing clouds.


Feels Like: 44 °F
Forecast: 38 / 59 °F
Wind: 3 mph from Northwest

Location: Brno / Turany

Current Time: Apr 20, 2015 at 1:03:22 AM

Latest Report: Apr 20, 2015 at 12:00 AM


Visibility: 25 mi

Pressure: 30.17 "Hg

Humidity: 56%

Dew point: 30 °F

Location of BrnoLocation

Historic Weather in Brno — Graph

°F

Brno temperature yesterday

Maximum temperature yesterday: 57 °F (at 3:00 PM)
Minimum temperature yesterday: 33 °F (at 3:00 AM)
Average temperature yesterday: 45 °F

Past Weeks' High & Low Weather Summary

 TemperatureHumidityPressure
High75 °F (Apr 16, 2:00 PM)89% (Apr 12, 12:00 AM)30.50 "Hg (Apr 12, 12:00 AM)
Low30 °F (Apr 5, 5:00 AM)24% (Apr 14, 5:00 PM)29.81 "Hg (Apr 16, 5:00 PM)
Average49 °F57%30.21 "Hg
* Reported Midnight between Apr 4 and Apr 5 — Midnight between Apr 19 and Apr 20, Brno, Weather by CustomWeather, © 2015

Note: Actual official high and low records may vary slightly from our data, if they occured in-between our weather recording intervals... More about our weather records

Advertising

Brno weather history for previous 24 hours

 ConditionsComfort  
Time TempWeatherWind HumidityBarometerVisibility
12:00 AM
Mon, Apr 20
46 °FPassing clouds.3 mph56%30.17 "Hg25 mi
10:00 PM
Sun, Apr 19
50 °FPassing clouds.3 mph45%30.15 "Hg25 mi
9:00 PM50 °FPassing clouds.5 mph42%30.15 "Hg22 mi
8:00 PM53 °FPassing clouds.3 mph38%30.13 "Hg22 mi
7:00 PM54 °FPassing clouds.5 mph35%30.11 "Hg25 mi
6:00 PM55 °FOvercast.6 mph36%30.10 "Hg28 mi
5:00 PM56 °FPartly sunny.2 mph35%30.11 "Hg28 mi
4:00 PM55 °FScattered clouds.5 mph37%30.12 "Hg28 mi
3:00 PM57 °FScattered clouds.1 mph33%30.13 "Hg28 mi
2:00 PM54 °FScattered clouds.5 mph35%30.15 "Hg28 mi
1:00 PM52 °FPassing clouds.2 mph38%30.16 "Hg28 mi
12:00 PM50 °FScattered clouds.3 mph39%30.19 "Hg25 mi
11:00 AM49 °FScattered clouds.1 mph41%30.21 "Hg25 mi
10:00 AM47 °FPassing clouds.3 mph42%30.21 "Hg22 mi
9:00 AM44 °FPassing clouds.1 mph61%30.22 "Hg19 mi
8:00 AM38 °FPassing clouds.1 mph74%30.23 "Hg19 mi
7:00 AM33 °FPassing clouds.No wind78%30.23 "Hg12 mi
6:00 AM33 °FScattered clouds.1 mph78%30.22 "Hg12 mi
5:00 AM33 °FPassing clouds.1 mph77%30.22 "Hg12 mi
4:00 AM34 °FPassing clouds.1 mph74%30.23 "Hg12 mi
3:00 AM33 °FPassing clouds.1 mph77%30.24 "Hg12 mi
2:00 AM35 °FPassing clouds.1 mph67%30.25 "Hg16 mi
1:00 AM38 °FPassing clouds.3 mph65%30.24 "Hg19 mi
Weather by CustomWeather, © 2015

See weather overviewHow to use our weather pages